| time (UTC) | temp C | wind direction | speed KPH | gust KPH | rain 1hr cm | rain 24hr cm | rain mn cm | humidity % | barometer mb |
| 20260906233649 | 35 | 157 | 3.2 | 16.1 | 0.00 | 0.00 | 0.00 | 20 | 1016.2 |
| 20260906233142 | 35 | 251 | 1.6 | 12.9 | 0.00 | 0.00 | 0.00 | 21 | 1016.2 |
| 20260906232858 | 35 | 248 | 3.2 | 11.3 | 0.00 | 0.00 | 0.00 | 20 | 1016.2 |
| 20260906232131 | 35 | 211 | 3.2 | 11.3 | 0.00 | 0.00 | 0.00 | 20 | 1016.2 |
| 20260906231625 | 35 | 228 | 4.8 | 12.9 | 0.00 | 0.00 | 0.00 | 20 | 1016.2 |
| 20260906231119 | 35 | 159 | 4.8 | 12.9 | 0.00 | 0.00 | 0.00 | 19 | 1016.2 |
| 20260906230618 | 35 | 232 | 4.8 | 11.3 | 0.00 | 0.00 | 0.00 | 19 | 1016.2 |
| 20260906230320 | 35 | 280 | 1.6 | 11.3 | 0.00 | 0.00 | 0.00 | 19 | 1016.2 |
| 20260906230202 | 35 | 225 | 3.2 | 11.3 | 0.00 | 0.00 | 0.00 | 19 | 1016.3 |
| 20260906225119 | 35 | 201 | 3.2 | 8.0 | 0.00 | 0.00 | 0.00 | 20 | 1016.3 |
| 20260906224619 | 35 | 90 | 4.8 | 12.9 | 0.00 | 0.00 | 0.00 | 19 | 1016.2 |
| 20260906224119 | 35 | 196 | 4.8 | 12.9 | 0.00 | 0.00 | 0.00 | 20 | 1016.2 |
| 20260906223619 | 34 | 306 | 4.8 | 12.9 | 0.00 | 0.00 | 0.00 | 20 | 1016.3 |
| 20260906223119 | 34 | 180 | 3.2 | 9.7 | 0.00 | 0.00 | 0.00 | 20 | 1016.3 |
| 20260906222619 | 34 | 152 | 3.2 | 14.5 | 0.00 | 0.00 | 0.00 | 19 | 1016.3 |
| 20260906222119 | 35 | 214 | 4.8 | 14.5 | 0.00 | 0.00 | 0.00 | 18 | 1016.4 |
| 20260906221844 | 35 | 265 | 4.8 | 12.9 | 0.00 | 0.00 | 0.00 | 18 | 1016.4 |
| 20260906221341 | 35 | 219 | 4.8 | 12.9 | 0.00 | 0.00 | 0.00 | 19 | 1016.6 |
| 20260906220838 | 35 | 221 | 3.2 | 12.9 | 0.00 | 0.00 | 0.00 | 18 | 1016.5 |
| 20260906220115 | 35 | 163 | 1.6 | 9.7 | 0.00 | 0.00 | 0.00 | 19 | 1016.8 |
| 20260906215616 | 35 | 63 | 4.8 | 11.3 | 0.00 | 0.00 | 0.00 | 19 | 1016.8 |
| 20260906215115 | 35 | 63 | 6.4 | 14.5 | 0.00 | 0.00 | 0.00 | 18 | 1016.9 |
| 20260906214615 | 35 | 156 | 6.4 | 19.3 | 0.00 | 0.00 | 0.00 | 19 | 1016.9 |
| 20260906214113 | 35 | 226 | 4.8 | 19.3 | 0.00 | 0.00 | 0.00 | 20 | 1017.0 |
| 20260906213612 | 35 | 207 | 4.8 | 12.9 | 0.00 | 0.00 | 0.00 | 19 | 1017.1 |
| 20260906213113 | 35 | 177 | 6.4 | 12.9 | 0.00 | 0.00 | 0.00 | 19 | 1017.3 |
| 20260906212613 | 35 | 234 | 4.8 | 12.9 | 0.00 | 0.00 | 0.00 | 18 | 1017.5 |
| 20260906212113 | 35 | 261 | 4.8 | 12.9 | 0.00 | 0.00 | 0.00 | 21 | 1017.3 |
| 20260906211613 | 35 | 273 | 6.4 | 12.9 | 0.00 | 0.00 | 0.00 | 18 | 1017.7 |
| 20260906211113 | 35 | 192 | 6.4 | 12.9 | 0.00 | 0.00 | 0.00 | 18 | 1017.6 |
| 20260906210612 | 35 | 205 | 4.8 | 12.9 | 0.00 | 0.00 | 0.00 | 17 | 1017.7 |
| 20260906210108 | 35 | 275 | 3.2 | 11.3 | 0.00 | 0.00 | 0.00 | 18 | 1017.7 |
| 20260906205609 | 34 | 355 | 1.6 | 8.0 | 0.00 | 0.00 | 0.00 | 17 | 1017.8 |
| 20260906205108 | 35 | 331 | 3.2 | 9.7 | 0.00 | 0.00 | 0.00 | 18 | 1017.9 |
| 20260906204608 | 34 | 252 | 3.2 | 9.7 | 0.00 | 0.00 | 0.00 | 18 | 1018.0 |
| 20260906204109 | 34 | 227 | 3.2 | 14.5 | 0.00 | 0.00 | 0.00 | 18 | 1017.9 |
| 20260906203608 | 34 | 263 | 4.8 | 14.5 | 0.00 | 0.00 | 0.00 | 19 | 1018.2 |
| 20260906203109 | 34 | 294 | 3.2 | 14.5 | 0.00 | 0.00 | 0.00 | 18 | 1018.2 |
| 20260906202830 | 34 | 232 | 1.6 | 6.4 | 0.00 | 0.00 | 0.00 | 20 | 1018.2 |
| 20260906202550 | 34 | 272 | 1.6 | 6.4 | 0.00 | 0.00 | 0.00 | 17 | 1018.3 |
| 20260906201608 | 33 | 287 | 3.2 | 9.7 | 0.00 | 0.00 | 0.00 | 19 | 1018.4 |
| 20260906201109 | 33 | 225 | 3.2 | 9.7 | 0.00 | 0.00 | 0.00 | 19 | 1018.5 |
| 20260906200609 | 33 | 69 | 1.6 | 9.7 | 0.00 | 0.00 | 0.00 | 21 | 1018.4 |
| 20260906200334 | 33 | 142 | 1.6 | 12.9 | 0.00 | 0.00 | 0.00 | 18 | 1018.5 |
| 20260906195609 | 33 | 331 | 3.2 | 12.9 | 0.00 | 0.00 | 0.00 | 18 | 1018.6 |
| 20260906195109 | 33 | 251 | 3.2 | 9.7 | 0.00 | 0.00 | 0.00 | 18 | 1018.6 |
| 20260906194826 | 34 | 26 | 3.2 | 9.7 | 0.00 | 0.00 | 0.00 | 18 | 1018.7 |
| 20260906194109 | 34 | 290 | 3.2 | 9.7 | 0.00 | 0.00 | 0.00 | 18 | 1018.7 |
| 20260906193608 | 33 | 328 | 3.2 | 9.7 | 0.00 | 0.00 | 0.00 | 19 | 1018.9 |
| 20260906193108 | 33 | 260 | 3.2 | 9.7 | 0.00 | 0.00 | 0.00 | 19 | 1019.0 |
| 20260906192609 | 33 | 309 | 3.2 | 9.7 | 0.00 | 0.00 | 0.00 | 18 | 1019.1 |
| 20260906192108 | 33 | 22 | 3.2 | 9.7 | 0.00 | 0.00 | 0.00 | 19 | 1019.1 |
| 20260906191819 | 33 | 24 | 4.8 | 12.9 | 0.00 | 0.00 | 0.00 | 18 | 1019.2 |
| 20260906191056 | 33 | 310 | 4.8 | 12.9 | 0.00 | 0.00 | 0.00 | 18 | 1019.3 |
| 20260906190550 | 32 | 5 | 3.2 | 8.0 | 0.00 | 0.00 | 0.00 | 20 | 1019.5 |
| 20260906190308 | 33 | 342 | 3.2 | 8.0 | 0.00 | 0.00 | 0.00 | 18 | 1019.5 |
| 20260906185538 | 33 | 292 | 1.6 | 6.4 | 0.00 | 0.00 | 0.00 | 21 | 1019.6 |
| 20260906185256 | 33 | 292 | 1.6 | 8.0 | 0.00 | 0.00 | 0.00 | 18 | 1019.7 |
| 20260906184525 | 33 | 274 | 4.8 | 12.9 | 0.00 | 0.00 | 0.00 | 20 | 1019.7 |
| 20260906184018 | 32 | 250 | 4.8 | 12.9 | 0.00 | 0.00 | 0.00 | 22 | 1019.8 |
| 20260906183511 | 32 | 211 | 3.2 | 12.9 | 0.00 | 0.00 | 0.00 | 23 | 1019.8 |
| 20260906183006 | 32 | 351 | 1.6 | 12.9 | 0.00 | 0.00 | 0.00 | 23 | 1019.9 |
| 20260906182912 | 32 | 244 | 3.2 | 9.7 | 0.00 | 0.00 | 0.00 | 24 | 1020.0 |
| 20260906182759 | 32 | 144 | 3.2 | 9.7 | 0.00 | 0.00 | 0.00 | 24 | 1020.0 |
| 20260906181448 | 31 | 189 | 3.2 | 8.0 | 0.00 | 0.00 | 0.00 | 28 | 1020.2 |
| 20260906180942 | 31 | 241 | 1.6 | 8.0 | 0.00 | 0.00 | 0.00 | 27 | 1020.3 |
| 20260906180435 | 31 | 213 | 1.6 | 4.8 | 0.00 | 0.00 | 0.00 | 27 | 1020.5 |
| 20260906175930 | 30 | 263 | 1.6 | 4.8 | 0.00 | 0.00 | 0.00 | 28 | 1020.6 |
| 20260906175424 | 30 | 247 | 1.6 | 6.4 | 0.00 | 0.00 | 0.00 | 29 | 1020.6 |
| 20260906174918 | 29 | 51 | 1.6 | 6.4 | 0.00 | 0.00 | 0.00 | 32 | 1020.6 |
| 20260906174413 | 29 | 5 | 1.6 | 6.4 | 0.00 | 0.00 | 0.00 | 32 | 1020.6 |
| 20260906173905 | 29 | 0 | 1.6 | 4.8 | 0.00 | 0.00 | 0.00 | 30 | 1020.7 |
| 20260906173359 | 29 | 38 | 1.6 | 4.8 | 0.00 | 0.00 | 0.00 | 32 | 1020.7 |
| 20260906172853 | 29 | 316 | 1.6 | 8.0 | 0.00 | 0.00 | 0.00 | 30 | 1021.0 |
| 20260906172347 | 29 | 330 | 3.2 | 8.0 | 0.00 | 0.00 | 0.00 | 31 | 1020.9 |
| 20260906171842 | 30 | 66 | 3.2 | 11.3 | 0.00 | 0.00 | 0.00 | 31 | 1020.9 |
| 20260906171337 | 29 | 18 | 3.2 | 11.3 | 0.00 | 0.00 | 0.00 | 32 | 1021.1 |
| 20260906171054 | 29 | 46 | 1.6 | 6.4 | 0.00 | 0.00 | 0.00 | 32 | 1021.0 |
| 20260906170812 | 28 | 41 | 1.6 | 6.4 | 0.00 | 0.00 | 0.00 | 33 | 1021.0 |
| 20260906165818 | 28 | 17 | 1.6 | 4.8 | 0.00 | 0.00 | 0.00 | 32 | 1021.0 |
| 20260906165312 | 28 | 38 | 1.6 | 6.4 | 0.00 | 0.00 | 0.00 | 35 | 1021.1 |
| 20260906164806 | 27 | 10 | 1.6 | 6.4 | 0.00 | 0.00 | 0.00 | 34 | 1021.2 |
| 20260906164300 | 27 | 21 | 1.6 | 4.8 | 0.00 | 0.00 | 0.00 | 35 | 1021.3 |
| 20260906163754 | 26 | 34 | 1.6 | 6.4 | 0.00 | 0.00 | 0.00 | 38 | 1021.3 |
| 20260906163248 | 26 | 355 | 1.6 | 6.4 | 0.00 | 0.00 | 0.00 | 36 | 1021.2 |
| 20260906162742 | 26 | 62 | 3.2 | 6.4 | 0.00 | 0.00 | 0.00 | 36 | 1021.4 |
| 20260906162236 | 26 | 25 | 3.2 | 12.9 | 0.00 | 0.00 | 0.00 | 37 | 1021.4 |
| 20260906162222 | 25 | 0 | 3.2 | 9.7 | 0.00 | 0.00 | 0.00 | 38 | 1021.3 |
| 20260906161224 | 25 | 9 | 1.6 | 6.4 | 0.00 | 0.00 | 0.00 | 38 | 1021.2 |
| 20260906160717 | 25 | 10 | 1.6 | 6.4 | 0.00 | 0.00 | 0.00 | 39 | 1021.3 |
| 20260906160434 | 25 | 335 | 1.6 | 6.4 | 0.00 | 0.00 | 0.00 | 40 | 1021.3 |
| 20260906155705 | 25 | 16 | 3.2 | 8.0 | 0.00 | 0.00 | 0.00 | 39 | 1021.3 |
| 20260906155159 | 25 | 48 | 3.2 | 8.0 | 0.00 | 0.00 | 0.00 | 38 | 1021.3 |
| 20260906154653 | 24 | 47 | 3.2 | 6.4 | 0.00 | 0.00 | 0.00 | 39 | 1021.2 |
| 20260906154148 | 24 | 24 | 3.2 | 8.0 | 0.00 | 0.00 | 0.00 | 38 | 1021.3 |
| 20260906153902 | 24 | 63 | 3.2 | 8.0 | 0.00 | 0.00 | 0.00 | 39 | 1021.4 |
| 20260906153136 | 24 | 355 | 3.2 | 6.4 | 0.00 | 0.00 | 0.00 | 39 | 1021.2 |
| 20260906152852 | 24 | 29 | 3.2 | 11.3 | 0.00 | 0.00 | 0.00 | 40 | 1021.3 |
| 20260906152123 | 24 | 23 | 4.8 | 12.9 | 0.00 | 0.00 | 0.00 | 38 | 1021.4 |
| 20260906151618 | 24 | 0 | 4.8 | 12.9 | 0.00 | 0.00 | 0.00 | 39 | 1021.3 |
| 20260906151111 | 24 | 343 | 4.8 | 11.3 | 0.00 | 0.00 | 0.00 | 38 | 1021.3 |
| 20260906150605 | 23 | 5 | 4.8 | 12.9 | 0.00 | 0.00 | 0.00 | 39 | 1021.2 |
| 20260906150319 | 23 | 350 | 4.8 | 12.9 | 0.00 | 0.00 | 0.00 | 39 | 1021.2 |
| 20260906145554 | 23 | 5 | 4.8 | 14.5 | 0.00 | 0.00 | 0.00 | 39 | 1021.3 |
| 20260906145047 | 23 | 316 | 4.8 | 14.5 | 0.00 | 0.00 | 0.00 | 39 | 1021.2 |
| 20260906144541 | 23 | 331 | 4.8 | 12.9 | 0.00 | 0.00 | 0.00 | 40 | 1021.2 |
| 20260906144036 | 23 | 24 | 4.8 | 11.3 | 0.00 | 0.00 | 0.00 | 40 | 1021.2 |
| 20260906143530 | 22 | 28 | 4.8 | 11.3 | 0.00 | 0.00 | 0.00 | 40 | 1021.3 |
| 20260906143024 | 22 | 350 | 4.8 | 11.3 | 0.00 | 0.00 | 0.00 | 41 | 1021.2 |
| 20260906142518 | 22 | 320 | 3.2 | 11.3 | 0.00 | 0.00 | 0.00 | 41 | 1021.1 |
| 20260906142012 | 22 | 36 | 3.2 | 8.0 | 0.00 | 0.00 | 0.00 | 42 | 1021.1 |
| 20260906141506 | 22 | 38 | 1.6 | 8.0 | 0.00 | 0.00 | 0.00 | 41 | 1021.0 |
| 20260906141000 | 22 | 28 | 1.6 | 6.4 | 0.00 | 0.00 | 0.00 | 41 | 1021.0 |
| 20260906140453 | 22 | 19 | 1.6 | 3.2 | 0.00 | 0.00 | 0.00 | 41 | 1020.9 |
| 20260906135949 | 22 | 355 | 1.6 | 8.0 | 0.00 | 0.00 | 0.00 | 41 | 1021.0 |
| 20260906135442 | 22 | 327 | 1.6 | 8.0 | 0.00 | 0.00 | 0.00 | 41 | 1020.7 |
| 20260906134936 | 21 | 0 | 1.6 | 6.4 | 0.00 | 0.00 | 0.00 | 42 | 1020.7 |
| 20260906134437 | 21 | 64 | 1.6 | 6.4 | 0.00 | 0.00 | 0.00 | 43 | 1020.9 |
| 20260906133933 | 21 | 55 | 1.6 | 12.9 | 0.00 | 0.00 | 0.00 | 44 | 1020.7 |
| 20260906133657 | 21 | 53 | 4.8 | 12.9 | 0.00 | 0.00 | 0.00 | 43 | 1020.6 |
| 20260906132934 | 21 | 57 | 6.4 | 12.9 | 0.00 | 0.00 | 0.00 | 42 | 1020.5 |
| 20260906132654 | 21 | 66 | 6.4 | 12.9 | 0.00 | 0.00 | 0.00 | 42 | 1020.6 |
| 20260906131933 | 21 | 42 | 6.4 | 14.5 | 0.00 | 0.00 | 0.00 | 41 | 1020.6 |
| 20260906131432 | 21 | 54 | 6.4 | 14.5 | 0.00 | 0.00 | 0.00 | 41 | 1020.6 |
| 20260906130930 | 21 | 41 | 3.2 | 9.7 | 0.00 | 0.00 | 0.00 | 42 | 1020.5 |
| 20260906130430 | 21 | 40 | 4.8 | 16.1 | 0.00 | 0.00 | 0.00 | 41 | 1020.5 |
| 20260906125930 | 21 | 26 | 4.8 | 16.1 | 0.00 | 0.00 | 0.00 | 40 | 1020.4 |
| 20260906125430 | 21 | 355 | 4.8 | 12.9 | 0.00 | 0.00 | 0.00 | 40 | 1020.4 |
| 20260906125153 | 21 | 355 | 3.2 | 12.9 | 0.00 | 0.00 | 0.00 | 40 | 1020.4 |
| 20260906124430 | 21 | 20 | 1.6 | 6.4 | 0.00 | 0.00 | 0.00 | 41 | 1020.4 |
| 20260906123930 | 21 | 44 | 3.2 | 14.5 | 0.00 | 0.00 | 0.00 | 41 | 1020.5 |
| 20260906123430 | 21 | 49 | 4.8 | 14.5 | 0.00 | 0.00 | 0.00 | 41 | 1020.3 |
| 20260906122930 | 21 | 47 | 3.2 | 9.7 | 0.00 | 0.00 | 0.00 | 40 | 1020.2 |
| 20260906122429 | 21 | 40 | 1.6 | 8.0 | 0.00 | 0.00 | 0.00 | 40 | 1020.2 |
| 20260906121930 | 21 | 355 | 1.6 | 8.0 | 0.00 | 0.00 | 0.00 | 40 | 1020.0 |
| 20260906121428 | 21 | 343 | 1.6 | 8.0 | 0.00 | 0.00 | 0.00 | 41 | 1019.9 |
| 20260906120927 | 21 | 32 | 0.0 | 4.8 | 0.00 | 0.00 | 0.00 | 41 | 1020.0 |
| 20260906120428 | 21 | 355 | 0.0 | 4.8 | 0.00 | 0.00 | 0.00 | 42 | 1020.2 |
| 20260906115928 | 21 | 341 | 0.0 | 4.8 | 0.00 | 0.00 | 0.00 | 42 | 1020.2 |
| 20260906115649 | 21 | 59 | 0.0 | 4.8 | 0.00 | 0.00 | 0.00 | 42 | 1020.0 |
| 20260906114928 | 21 | 54 | 0.0 | 3.2 | 0.00 | 0.00 | 0.00 | 41 | 1019.9 |
| 20260906114428 | 21 | 0 | 0.0 | 3.2 | 0.00 | 0.00 | 0.00 | 41 | 1020.0 |
| 20260906113927 | 21 | 355 | 0.0 | 3.2 | 0.00 | 0.00 | 0.00 | 41 | 1019.9 |
| 20260906113654 | 21 | 31 | 0.0 | 1.6 | 0.00 | 0.00 | 0.00 | 40 | 1020.0 |
| 20260906112928 | 21 | 324 | 0.0 | 1.6 | 0.00 | 0.00 | 0.00 | 41 | 1020.0 |
| 20260906112427 | 21 | 322 | 0.0 | 0.0 | 0.00 | 0.00 | 0.00 | 41 | 1020.0 |
| 20260906111928 | 21 | 355 | 0.0 | 0.0 | 0.00 | 0.00 | 0.00 | 41 | 1019.9 |
| 20260906111428 | 21 | 355 | 0.0 | 0.0 | 0.00 | 0.00 | 0.00 | 41 | 1019.9 |
| 20260906110928 | 21 | 62 | 0.0 | 0.0 | 0.00 | 0.00 | 0.00 | 41 | 1019.9 |
| 20260906110428 | 22 | 62 | 0.0 | 0.0 | 0.00 | 0.00 | 0.00 | 40 | 1019.9 |
| 20260906105928 | 22 | 62 | 0.0 | 3.2 | 0.00 | 0.00 | 0.00 | 40 | 1019.9 |
| 20260906105650 | 22 | 66 | 1.6 | 4.8 | 0.00 | 0.00 | 0.00 | 41 | 1020.0 |
| 20260906104928 | 22 | 73 | 1.6 | 4.8 | 0.00 | 0.00 | 0.00 | 41 | 1020.2 |
| 20260906104428 | 22 | 55 | 0.0 | 3.2 | 0.00 | 0.00 | 0.00 | 40 | 1020.0 |
| 20260906103927 | 22 | 59 | 0.0 | 1.6 | 0.00 | 0.00 | 0.00 | 41 | 1020.0 |
| 20260906103428 | 22 | 59 | 1.6 | 6.4 | 0.00 | 0.00 | 0.00 | 40 | 1020.0 |
| 20260906102927 | 22 | 40 | 1.6 | 6.4 | 0.00 | 0.00 | 0.00 | 40 | 1020.0 |
| 20260906102428 | 22 | 55 | 1.6 | 6.4 | 0.00 | 0.00 | 0.00 | 40 | 1020.0 |
| 20260906101928 | 22 | 53 | 0.0 | 3.2 | 0.00 | 0.00 | 0.00 | 40 | 1020.0 |
| 20260906101425 | 22 | 52 | 0.0 | 1.6 | 0.00 | 0.00 | 0.00 | 41 | 1019.9 |
| 20260906100926 | 22 | 52 | 0.0 | 0.0 | 0.00 | 0.00 | 0.00 | 41 | 1020.0 |
| 20260906100425 | 22 | 52 | 0.0 | 1.6 | 0.00 | 0.00 | 0.00 | 42 | 1019.9 |
| 20260906095924 | 22 | 51 | 0.0 | 4.8 | 0.00 | 0.00 | 0.00 | 42 | 1019.9 |
| 20260906095418 | 22 | 55 | 0.0 | 4.8 | 0.00 | 0.00 | 0.00 | 42 | 1019.8 |
| 20260906095137 | 22 | 85 | 0.0 | 1.6 | 0.00 | 0.00 | 0.00 | 43 | 1019.8 |
| 20260906094407 | 22 | 85 | 0.0 | 1.6 | 0.00 | 0.00 | 0.00 | 42 | 1019.8 |
| 20260906093901 | 22 | 85 | 0.0 | 0.0 | 0.00 | 0.00 | 0.00 | 43 | 1019.7 |
| 20260906093355 | 22 | 85 | 0.0 | 0.0 | 0.00 | 0.00 | 0.00 | 43 | 1019.7 |
| 20260906092850 | 22 | 85 | 0.0 | 0.0 | 0.00 | 0.00 | 0.00 | 42 | 1019.7 |
| 20260906092343 | 22 | 85 | 0.0 | 0.0 | 0.00 | 0.00 | 0.00 | 41 | 1019.6 |
| 20260906091836 | 22 | 85 | 0.0 | 0.0 | 0.00 | 0.00 | 0.00 | 42 | 1019.6 |
| 20260906091331 | 22 | 85 | 0.0 | 1.6 | 0.00 | 0.00 | 0.00 | 42 | 1019.5 |
| 20260906090824 | 22 | 85 | 0.0 | 1.6 | 0.00 | 0.00 | 0.00 | 41 | 1019.5 |
| 20260906090319 | 22 | 85 | 0.0 | 3.2 | 0.00 | 0.00 | 0.00 | 42 | 1019.3 |
| 20260906085813 | 22 | 85 | 0.0 | 3.2 | 0.00 | 0.00 | 0.00 | 41 | 1019.6 |
| 20260906085307 | 22 | 85 | 0.0 | 1.6 | 0.00 | 0.00 | 0.00 | 42 | 1019.3 |
| 20260906084801 | 22 | 85 | 0.0 | 4.8 | 0.00 | 0.00 | 0.00 | 41 | 1019.5 |
| 20260906084255 | 22 | 85 | 1.6 | 4.8 | 0.00 | 0.00 | 0.00 | 42 | 1019.5 |
| 20260906083749 | 22 | 115 | 1.6 | 4.8 | 0.00 | 0.00 | 0.00 | 42 | 1019.5 |
| 20260906083243 | 22 | 88 | 1.6 | 4.8 | 0.00 | 0.00 | 0.00 | 41 | 1019.5 |
| 20260906082738 | 22 | 87 | 0.0 | 3.2 | 0.00 | 0.00 | 0.00 | 42 | 1019.7 |
| 20260906082231 | 22 | 86 | 0.0 | 3.2 | 0.00 | 0.00 | 0.00 | 41 | 1019.6 |
| 20260906081725 | 22 | 80 | 1.6 | 4.8 | 0.00 | 0.00 | 0.00 | 42 | 1019.7 |
| 20260906081219 | 22 | 93 | 1.6 | 4.8 | 0.00 | 0.00 | 0.00 | 41 | 1019.7 |
| 20260906080713 | 22 | 109 | 0.0 | 3.2 | 0.00 | 0.00 | 0.00 | 42 | 1019.7 |
| 20260906080207 | 22 | 88 | 0.0 | 3.2 | 0.00 | 0.00 | 0.00 | 42 | 1019.8 |
| 20260906075700 | 22 | 88 | 1.6 | 4.8 | 0.00 | 0.00 | 0.00 | 43 | 1019.7 |
| 20260906075154 | 22 | 88 | 1.6 | 4.8 | 0.00 | 0.00 | 0.00 | 43 | 1019.8 |
| 20260906074649 | 22 | 82 | 1.6 | 3.2 | 0.00 | 0.00 | 0.00 | 44 | 1019.9 |
| 20260906074408 | 22 | 107 | 1.6 | 3.2 | 0.00 | 0.00 | 0.00 | 45 | 1020.0 |
| 20260906073636 | 22 | 111 | 1.6 | 3.2 | 0.00 | 0.00 | 0.00 | 46 | 1020.0 |
| 20260906073130 | 22 | 111 | 0.0 | 3.2 | 0.00 | 0.00 | 0.00 | 45 | 1019.9 |
| 20260906072841 | 22 | 96 | 0.0 | 3.2 | 0.00 | 0.00 | 0.00 | 45 | 1019.9 |
| 20260906072342 | 22 | 79 | 0.0 | 3.2 | 0.00 | 0.00 | 0.00 | 45 | 1019.9 |
| 20260906071613 | 22 | 128 | 0.0 | 1.6 | 0.00 | 0.00 | 0.00 | 44 | 1020.0 |
| 20260906071108 | 22 | 128 | 0.0 | 1.6 | 0.00 | 0.00 | 0.00 | 43 | 1020.0 |
| 20260906070600 | 23 | 128 | 0.0 | 1.6 | 0.00 | 0.00 | 0.00 | 43 | 1020.0 |
| 20260906070054 | 23 | 128 | 0.0 | 1.6 | 0.00 | 0.00 | 0.00 | 42 | 1019.9 |
| 20260906065548 | 23 | 128 | 0.0 | 1.6 | 0.00 | 0.00 | 0.00 | 41 | 1019.9 |
| 20260906065043 | 23 | 121 | 1.6 | 4.8 | 0.00 | 0.00 | 0.00 | 40 | 1020.0 |
| 20260906064537 | 23 | 135 | 1.6 | 4.8 | 0.00 | 0.00 | 0.00 | 41 | 1020.0 |
| 20260906064031 | 23 | 133 | 1.6 | 4.8 | 0.00 | 0.00 | 0.00 | 40 | 1020.0 |
| 20260906063525 | 23 | 138 | 1.6 | 4.8 | 0.00 | 0.00 | 0.00 | 41 | 1020.0 |
| 20260906063019 | 23 | 96 | 1.6 | 4.8 | 0.00 | 0.00 | 0.00 | 39 | 1020.0 |
| 20260906062514 | 23 | 96 | 1.6 | 4.8 | 0.00 | 0.00 | 0.00 | 39 | 1020.2 |
| 20260906062006 | 24 | 84 | 1.6 | 3.2 | 0.00 | 0.00 | 0.00 | 38 | 1019.9 |
| 20260906061500 | 24 | 84 | 0.0 | 3.2 | 0.00 | 0.00 | 0.00 | 38 | 1019.9 |
| 20260906061214 | 24 | 84 | 0.0 | 3.2 | 0.00 | 0.00 | 0.00 | 37 | 1019.9 |
| 20260906060449 | 24 | 84 | 0.0 | 1.6 | 0.00 | 0.00 | 0.00 | 36 | 1019.8 |
| 20260906055942 | 25 | 81 | 0.0 | 1.6 | 0.00 | 0.00 | 0.00 | 36 | 1019.8 |
| 20260906055437 | 25 | 0 | 0.0 | 0.0 | 0.00 | 0.00 | 0.00 | 35 | 1019.8 |
| 20260906054930 | 25 | 0 | 0.0 | 0.0 | 0.00 | 0.00 | 0.00 | 35 | 1019.7 |
| 20260906054424 | 25 | 0 | 0.0 | 0.0 | 0.00 | 0.00 | 0.00 | 34 | 1019.6 |
| 20260906053918 | 25 | 0 | 0.0 | 3.2 | 0.00 | 0.00 | 0.00 | 34 | 1019.6 |
| 20260906053907 | 25 | 0 | 0.0 | 4.8 | 0.00 | 0.00 | 0.00 | 34 | 1019.6 |
| 20260906052907 | 26 | 323 | 0.0 | 4.8 | 0.00 | 0.00 | 0.00 | 33 | 1019.6 |
| 20260906052401 | 26 | 327 | 0.0 | 3.2 | 0.00 | 0.00 | 0.00 | 32 | 1019.5 |
| 20260906052118 | 26 | 327 | 1.6 | 4.8 | 0.00 | 0.00 | 0.00 | 32 | 1019.5 |
| 20260906051348 | 26 | 20 | 1.6 | 8.0 | 0.00 | 0.00 | 0.00 | 32 | 1019.6 |
| 20260906050844 | 26 | 321 | 1.6 | 8.0 | 0.00 | 0.00 | 0.00 | 32 | 1019.5 |
| 20260906050336 | 25 | 0 | 1.6 | 8.0 | 0.00 | 0.00 | 0.00 | 32 | 1019.3 |
| 20260906045831 | 25 | 355 | 0.0 | 3.2 | 0.00 | 0.00 | 0.00 | 32 | 1019.3 |
| 20260906045326 | 25 | 77 | 0.0 | 6.4 | 0.00 | 0.00 | 0.00 | 33 | 1019.3 |
| 20260906045038 | 25 | 93 | 1.6 | 6.4 | 0.00 | 0.00 | 0.00 | 33 | 1019.3 |
| 20260906044313 | 25 | 42 | 1.6 | 4.8 | 0.00 | 0.00 | 0.00 | 33 | 1019.3 |
| 20260906043807 | 26 | 333 | 0.0 | 4.8 | 0.00 | 0.00 | 0.00 | 33 | 1019.3 |
| 20260906043521 | 26 | 51 | 1.6 | 4.8 | 0.00 | 0.00 | 0.00 | 33 | 1019.5 |
| 20260906042755 | 26 | 56 | 1.6 | 4.8 | 0.00 | 0.00 | 0.00 | 33 | 1019.3 |
| 20260906042249 | 26 | 76 | 1.6 | 4.8 | 0.00 | 0.00 | 0.00 | 33 | 1019.5 |
| 20260906041743 | 26 | 57 | 1.6 | 6.4 | 0.00 | 0.00 | 0.00 | 33 | 1019.3 |
| 20260906041459 | 26 | 59 | 3.2 | 6.4 | 0.00 | 0.00 | 0.00 | 33 | 1019.5 |
| 20260906040731 | 26 | 63 | 1.6 | 6.4 | 0.00 | 0.00 | 0.00 | 33 | 1019.5 |
| 20260906040224 | 26 | 60 | 1.6 | 4.8 | 0.00 | 0.00 | 0.00 | 33 | 1019.5 |
| 20260906035719 | 26 | 65 | 1.6 | 6.4 | 0.00 | 0.00 | 0.00 | 33 | 1019.5 |
| 20260906035213 | 26 | 65 | 1.6 | 6.4 | 0.00 | 0.00 | 0.00 | 32 | 1019.6 |
| 20260906034706 | 26 | 55 | 1.6 | 6.4 | 0.00 | 0.00 | 0.00 | 33 | 1019.5 |
| 20260906034201 | 26 | 57 | 0.0 | 6.4 | 0.00 | 0.00 | 0.00 | 32 | 1019.5 |
| 20260906033655 | 27 | 50 | 0.0 | 1.6 | 0.00 | 0.00 | 0.00 | 32 | 1019.3 |
| 20260906033149 | 27 | 50 | 0.0 | 1.6 | 0.00 | 0.00 | 0.00 | 31 | 1019.3 |
| 20260906032643 | 27 | 38 | 0.0 | 4.8 | 0.00 | 0.00 | 0.00 | 31 | 1019.2 |
| 20260906032137 | 27 | 16 | 0.0 | 4.8 | 0.00 | 0.00 | 0.00 | 31 | 1019.1 |
| 20260906031631 | 27 | 0 | 0.0 | 4.8 | 0.00 | 0.00 | 0.00 | 31 | 1019.0 |
| 20260906031125 | 27 | 33 | 0.0 | 4.8 | 0.00 | 0.00 | 0.00 | 32 | 1018.9 |
| 20260906030619 | 27 | 29 | 0.0 | 4.8 | 0.00 | 0.00 | 0.00 | 31 | 1019.0 |
| 20260906030338 | 27 | 42 | 0.0 | 4.8 | 0.00 | 0.00 | 0.00 | 31 | 1018.7 |
| 20260906025606 | 27 | 346 | 1.6 | 12.9 | 0.00 | 0.00 | 0.00 | 32 | 1018.7 |
| 20260906025100 | 27 | 346 | 0.0 | 12.9 | 0.00 | 0.00 | 0.00 | 32 | 1018.7 |
| 20260906024555 | 27 | 339 | 0.0 | 4.8 | 0.00 | 0.00 | 0.00 | 32 | 1018.6 |
| 20260906024049 | 28 | 355 | 0.0 | 1.6 | 0.00 | 0.00 | 0.00 | 32 | 1018.6 |
| 20260906023803 | 28 | 355 | 0.0 | 4.8 | 0.00 | 0.00 | 0.00 | 32 | 1018.6 |
| 20260906023037 | 28 | 355 | 0.0 | 4.8 | 0.00 | 0.00 | 0.00 | 31 | 1018.5 |
| 20260906022531 | 28 | 355 | 1.6 | 8.0 | 0.00 | 0.00 | 0.00 | 31 | 1018.5 |
| 20260906022247 | 28 | 348 | 3.2 | 8.0 | 0.00 | 0.00 | 0.00 | 31 | 1018.3 |
| 20260906021520 | 28 | 338 | 1.6 | 8.0 | 0.00 | 0.00 | 0.00 | 31 | 1018.3 |
| 20260906021013 | 28 | 339 | 0.0 | 6.4 | 0.00 | 0.00 | 0.00 | 31 | 1018.3 |
| 20260906020507 | 28 | 309 | 0.0 | 6.4 | 0.00 | 0.00 | 0.00 | 31 | 1018.3 |
| 20260906020001 | 29 | 348 | 0.0 | 3.2 | 0.00 | 0.00 | 0.00 | 31 | 1018.2 |
| 20260906015454 | 29 | 348 | 0.0 | 3.2 | 0.00 | 0.00 | 0.00 | 31 | 1018.0 |
| 20260906014949 | 29 | 348 | 0.0 | 6.4 | 0.00 | 0.00 | 0.00 | 31 | 1018.0 |
| 20260906014443 | 30 | 348 | 1.6 | 6.4 | 0.00 | 0.00 | 0.00 | 29 | 1018.0 |
| 20260906013942 | 30 | 328 | 1.6 | 6.4 | 0.00 | 0.00 | 0.00 | 29 | 1017.9 |
| 20260906013701 | 30 | 323 | 1.6 | 8.0 | 0.00 | 0.00 | 0.00 | 29 | 1018.0 |
| 20260906012939 | 30 | 288 | 1.6 | 8.0 | 0.00 | 0.00 | 0.00 | 29 | 1018.0 |
| 20260906012437 | 30 | 283 | 1.6 | 8.0 | 0.00 | 0.00 | 0.00 | 28 | 1017.9 |
| 20260906011936 | 30 | 313 | 1.6 | 4.8 | 0.00 | 0.00 | 0.00 | 29 | 1018.0 |
| 20260906011437 | 30 | 0 | 1.6 | 8.0 | 0.00 | 0.00 | 0.00 | 28 | 1018.0 |
| 20260906010935 | 30 | 337 | 1.6 | 8.0 | 0.00 | 0.00 | 0.00 | 28 | 1018.0 |
| 20260906010434 | 31 | 5 | 0.0 | 6.4 | 0.00 | 0.00 | 0.00 | 28 | 1018.0 |
| 20260906010156 | 31 | 300 | 1.6 | 4.8 | 0.00 | 0.00 | 0.00 | 29 | 1018.0 |
| 20260906005702 | 31 | 313 | 1.6 | 8.0 | 0.00 | 0.00 | 0.00 | 28 | 1017.9 |
| 20260906004935 | 31 | 319 | 3.2 | 8.0 | 0.00 | 0.00 | 0.00 | 27 | 1018.2 |
| 20260906004925 | 31 | 290 | 3.2 | 8.0 | 0.00 | 0.00 | 0.00 | 27 | 1018.0 |
| 20260906004144 | 31 | 336 | 1.6 | 11.3 | 0.00 | 0.00 | 0.00 | 27 | 1018.2 |
| 20260906004024 | 31 | 333 | 1.6 | 6.4 | 0.00 | 0.00 | 0.00 | 28 | 1018.2 |
| 20260906002935 | 32 | 312 | 3.2 | 11.3 | 0.00 | 0.00 | 0.00 | 27 | 1018.2 |
| 20260906002434 | 32 | 270 | 3.2 | 9.7 | 0.00 | 0.00 | 0.00 | 26 | 1018.2 |
| 20260906002157 | 32 | 313 | 3.2 | 11.3 | 0.00 | 0.00 | 0.00 | 26 | 1018.0 |
| 20260906001434 | 32 | 255 | 3.2 | 11.3 | 0.00 | 0.00 | 0.00 | 26 | 1017.9 |
| 20260906000935 | 32 | 253 | 3.2 | 11.3 | 0.00 | 0.00 | 0.00 | 26 | 1017.9 |
| 20260906000917 | 32 | 261 | 3.2 | 9.7 | 0.00 | 0.00 | 0.00 | 26 | 1018.0 |
| 20260905235935 | 32 | 259 | 1.6 | 8.0 | 0.00 | 0.00 | 0.00 | 26 | 1018.0 |
| 20260905235435 | 33 | 239 | 3.2 | 11.3 | 0.00 | 0.00 | 0.00 | 25 | 1017.9 |
| 20260905234934 | 33 | 303 | 1.6 | 11.3 | 0.00 | 0.00 | 0.00 | 25 | 1018.0 |
| 20260905234435 | 33 | 13 | 1.6 | 6.4 | 0.00 | 0.00 | 0.00 | 25 | 1017.9 |
| 20260905233935 | 33 | 177 | 1.6 | 6.4 | 0.00 | 0.00 | 0.00 | 24 | 1017.8 |